Domov               UVHVVR             MKGP            O straneh              
ZDRAVSTVENO VARSTVO RASTLIN
  MREŽA AGROMET. POSTAJ
 ► PROGNOSTIČNA OBVESTILA
AGROMETEOROLOŠKI PODATKI -
ARSO
OBVLADOVANJE TVEGANJ ZARADI
NEUGODNIH VREMENSKIH RAZMER
  ► NARAVNE NESREČE
  ► SUŠA/MOČA
  ► NAMAKANJE
  ► ŽLED (gozdarstvo)
KARTOGRAFSKI PRIKAZI
SPLETNE POVEZAVE
PROJEKTI IN PUBLIKACIJE

AGROMETEOROLOŠKA MREŽA: VREMENSKE POSTAJE IN FENOLOŠKA OPAZOVANJA

Pregled podatkov za lokacijo Podbrezje, meteorološka postaja 855704

Pregled senzorjev na lokaciji

ID Ime Zadnja
vrednost
Datum
zadnje
spremembe
Tip
senzorja
4021 Temperatura 2 m (°C) 12,4 °C 12.12.2017 01:00 50YA
4022 Relativna vlaga 2 m (% RH) 75,44 % RH 12.12.2017 01:00 50YA
4023 Omočenost lista (U) 4 U 12.12.2017 01:00 A730WET
4024 Padavine (mm) 0 mm 12.12.2017 01:00 Rain-O-Matic

Pregled podatkov zadnjih 24 ur

Zap.
št.
Datum in čas Podbrezje
Omočenost
lista
Padavine Relativna
vlaga
2
m
Temperatura
2
m
0 12.12.2017 01:00 4 0 75,44 12,4
1 12.12.2017 00:30 0 0 76,01 12,09
2 12.12.2017 00:00 0 0 75,62 12,27
3 11.12.2017 23:30 2 0,2 81,47 11,43
4 11.12.2017 23:00 6 0 83,28 11,16
5 11.12.2017 22:30 4 0,2 80,72 11,55
6 11.12.2017 22:00 4 0,4 80,77 11,57
7 11.12.2017 21:30 4 0 78,4 11,76
8 11.12.2017 21:00 4 0 76,85 11,89
9 11.12.2017 20:30 4 0 74,76 12,21
10 11.12.2017 20:00 3 0,2 75,9 12,01
11 11.12.2017 19:30 3 0,2 74,2 12,2
12 11.12.2017 19:00 2 0 70,06 12,65
13 11.12.2017 18:30 0 0 68,57 12,76
14 11.12.2017 18:00 0 0 69,23 12,72
15 11.12.2017 17:30 0 0 71,42 12,45
16 11.12.2017 17:00 0 0 76,17 11,79
17 11.12.2017 16:30 3 0,6 79,78 11,3
18 11.12.2017 16:00 4 0,6 82,4 10,95
19 11.12.2017 15:30 3 0,8 84,52 10,7
20 11.12.2017 15:00 3 0,8 85,6 10,52
21 11.12.2017 14:30 2 1 89,91 10,16
22 11.12.2017 14:00 2 0,8 91,94 9,86
23 11.12.2017 13:30 3 1 93,57 9,61
24 11.12.2017 13:00 2 1 94,38 9,4
25 11.12.2017 12:30 1 0,8 95,98 9,17
26 11.12.2017 12:00 1 1 100 8,6
27 11.12.2017 11:30 1 0,8 100 8,29
28 11.12.2017 11:00 2 1,2 100 7,8
29 11.12.2017 10:30 1 0,8 100 7,13
30 11.12.2017 10:00 3 0,6 99,99 5,2
31 11.12.2017 09:30 2 0,6 99,99 2,89
32 11.12.2017 09:00 5 1 99,99 2,26
33 11.12.2017 08:30 3 1,6 99,99 1,93
34 11.12.2017 08:00 3 1,4 99,99 1,75
35 11.12.2017 07:30 3 1,8 99,99 1,85
36 11.12.2017 07:00 3 1,8 99,99 1,55
37 11.12.2017 06:30 3 2 99,99 1,71
38 11.12.2017 06:00 3 2 99,99 1,7
39 11.12.2017 05:30 3 2 99,99 1,45
40 11.12.2017 05:00 3 1,8 99,99 1,18
41 11.12.2017 04:30 3 1,6 100 0,92
42 11.12.2017 04:00 3 1,8 99,99 0,84
43 11.12.2017 03:30 3 2,2 100 0,97
44 11.12.2017 03:00 3 1,8 99,99 0,86
45 11.12.2017 02:30 3 1,6 99,99 0,75
46 11.12.2017 02:00 3 2,2 100 0,68
© 2011 Ministrstvo za kmetijstvo, gozdarstvo in prehrano. Vse pravice pridržane.